EN

Hourly Weather Lagoa Santa

Today, 23 July, Friday

Time Temperature Precipitation Wind Pressure Humidity
00:00 +14°C° 0 mm 1 mps 703 mmHg 84%
01:00 +13°C° 0 mm 2 mps 703 mmHg 86%
02:00 +13°C° 0 mm 2 mps 703 mmHg 88%
03:00 +13°C° 0 mm 2 mps 703 mmHg 90%
04:00 +12°C° 0 mm 2 mps 703 mmHg 91%
05:00 +12°C° 0 mm 2 mps 703 mmHg 92%
06:00 +12°C° 0 mm 1 mps 703 mmHg 93%
07:00 +14°C° 0 mm 2 mps 704 mmHg 83%
08:00 +16°C° 0 mm 3 mps 704 mmHg 74%
09:00 +19°C° 0 mm 3 mps 705 mmHg 64%
10:00 +21°C° 0 mm 3 mps 705 mmHg 54%
11:00 +22°C° 0 mm 3 mps 705 mmHg 45%
12:00 +25°C° 0 mm 4 mps 705 mmHg 35%
13:00 +26°C° 0 mm 4 mps 704 mmHg 32%
14:00 +27°C° 0 mm 4 mps 703 mmHg 30%
15:00 +27°C° 0 mm 4 mps 703 mmHg 27%
16:00 +25°C° 0 mm 4 mps 703 mmHg 33%
17:00 +22°C° 0 mm 3 mps 702 mmHg 39%
18:00 +19°C° 0 mm 3 mps 702 mmHg 46%
19:00 +18°C° 0 mm 2 mps 702 mmHg 52%
20:00 +16°C° 0 mm 2 mps 703 mmHg 59%
21:00 +15°C° 0 mm 1 mps 703 mmHg 65%
22:00 +14°C° 0 mm 1 mps 703 mmHg 68%
23:00 +14°C° 0 mm 1 mps 703 mmHg 72%

Tomorrow, 24 July, Saturday

Time Temperature Precipitation Wind Pressure Humidity
00:00 +13°C° 0 mm 1 mps 702 mmHg 75%
01:00 +13°C° 0 mm 1 mps 702 mmHg 78%
02:00 +12°C° 0 mm 1 mps 702 mmHg 82%
03:00 +11°C° 0 mm 1 mps 702 mmHg 85%
04:00 +11°C° 0 mm 1 mps 702 mmHg 87%
05:00 +11°C° 0 mm 1 mps 702 mmHg 90%
06:00 +10°C° 0 mm 1 mps 702 mmHg 92%
07:00 +13°C° 0 mm 1 mps 703 mmHg 81%
08:00 +15°C° 0 mm 2 mps 704 mmHg 69%
09:00 +18°C° 0 mm 2 mps 704 mmHg 58%
10:00 +20°C° 0 mm 2 mps 704 mmHg 50%
11:00 +22°C° 0 mm 3 mps 704 mmHg 42%
12:00 +26°C° 0 mm 3 mps 704 mmHg 35%
13:00 +26°C° 0 mm 3 mps 703 mmHg 32%
14:00 +27°C° 0 mm 3 mps 702 mmHg 30%
15:00 +28°C° 0 mm 3 mps 701 mmHg 27%
16:00 +25°C° 0 mm 3 mps 701 mmHg 32%
17:00 +22°C° 0 mm 3 mps 701 mmHg 37%
18:00 +19°C° 0 mm 2 mps 701 mmHg 42%
19:00 +18°C° 0 mm 2 mps 701 mmHg 51%
20:00 +16°C° 0 mm 2 mps 701 mmHg 59%
21:00 +15°C° 0 mm 2 mps 702 mmHg 68%
22:00 +14°C° 0 mm 2 mps 702 mmHg 73%
23:00 +14°C° 0 mm 2 mps 702 mmHg 78%

Day after tomorrow, 25 July, Sunday

Time Temperature Precipitation Wind Pressure Humidity
00:00 +13°C° 0 mm 1 mps 701 mmHg 83%
01:00 +13°C° 0 mm 1 mps 701 mmHg 86%
02:00 +12°C° 0 mm 1 mps 701 mmHg 88%
03:00 +12°C° 0 mm 1 mps 700 mmHg 91%
04:00 +12°C° 0 mm 1 mps 700 mmHg 92%
05:00 +11°C° 0 mm 1 mps 701 mmHg 93%
06:00 +11°C° 0 mm 1 mps 701 mmHg 93%
07:00 +14°C° 0 mm 2 mps 701 mmHg 82%
08:00 +16°C° 0 mm 2 mps 702 mmHg 71%
09:00 +19°C° 0 mm 3 mps 703 mmHg 59%
10:00 +21°C° 0 mm 3 mps 703 mmHg 49%
11:00 +24°C° 0 mm 3 mps 702 mmHg 38%
12:00 +27°C° 0 mm 3 mps 702 mmHg 27%
13:00 +27°C° 0 mm 3 mps 702 mmHg 26%
14:00 +27°C° 0 mm 3 mps 701 mmHg 25%
15:00 +28°C° 0 mm 3 mps 701 mmHg 24%
16:00 +25°C° 0 mm 3 mps 700 mmHg 29%
17:00 +23°C° 0 mm 2 mps 700 mmHg 34%
18:00 +19°C° 0 mm 2 mps 700 mmHg 40%
19:00 +18°C° 0 mm 2 mps 700 mmHg 45%
20:00 +17°C° 0 mm 2 mps 701 mmHg 51%
21:00 +15°C° 0 mm 2 mps 701 mmHg 57%
22:00 +15°C° 0 mm 2 mps 701 mmHg 60%
23:00 +14°C° 0 mm 2 mps 701 mmHg 63%

26 July, Monday

Time Temperature Precipitation Wind Pressure Humidity
00:00 +14°C° 0 mm 2 mps 701 mmHg 65%
01:00 +13°C° 0 mm 2 mps 700 mmHg 68%
02:00 +13°C° 0 mm 1 mps 700 mmHg 71%
03:00 +12°C° 0 mm 1 mps 700 mmHg 74%
04:00 +12°C° 0 mm 1 mps 700 mmHg 78%
05:00 +12°C° 0 mm 1 mps 700 mmHg 83%
06:00 +10°C° 0 mm 2 mps 701 mmHg 87%
07:00 +14°C° 0 mm 2 mps 701 mmHg 76%
08:00 +17°C° 0 mm 2 mps 702 mmHg 66%
09:00 +20°C° 0 mm 2 mps 702 mmHg 55%
10:00 +23°C° 0 mm 2 mps 702 mmHg 45%
11:00 +26°C° 0 mm 2 mps 702 mmHg 36%
12:00 +28°C° 0 mm 3 mps 702 mmHg 26%
13:00 +28°C° 0 mm 3 mps 701 mmHg 25%
14:00 +28°C° 0 mm 3 mps 700 mmHg 24%
15:00 +29°C° 0 mm 4 mps 700 mmHg 24%
16:00 +26°C° 0 mm 3 mps 699 mmHg 31%
17:00 +24°C° 0 mm 3 mps 699 mmHg 38%
18:00 +20°C° 0 mm 2 mps 699 mmHg 45%
19:00 +19°C° 0 mm 2 mps 699 mmHg 54%
20:00 +18°C° 0 mm 2 mps 700 mmHg 64%
21:00 +17°C° 0 mm 2 mps 700 mmHg 74%
22:00 +16°C° 0 mm 2 mps 700 mmHg 79%
23:00 +15°C° 0 mm 2 mps 700 mmHg 84%

27 July, Tuesday

Time Temperature Precipitation Wind Pressure Humidity
00:00 +15°C° 0 mm 1 mps 700 mmHg 89%
01:00 +14°C° 0 mm 1 mps 700 mmHg 90%
02:00 +14°C° 0 mm 1 mps 699 mmHg 91%
03:00 +14°C° 0 mm 1 mps 699 mmHg 92%
04:00 +14°C° 0 mm 1 mps 699 mmHg 92%
05:00 +13°C° 0 mm 1 mps 699 mmHg 92%
06:00 +13°C° 0 mm 1 mps 699 mmHg 92%
07:00 +16°C° 0 mm 1 mps 699 mmHg 79%
08:00 +20°C° 0 mm 1 mps 700 mmHg 66%
09:00 +23°C° 0 mm 1 mps 700 mmHg 53%
10:00 +25°C° 0 mm 2 mps 700 mmHg 44%
11:00 +27°C° 0 mm 2 mps 700 mmHg 34%
12:00 +30°C° 0 mm 3 mps 699 mmHg 25%
13:00 +30°C° 0 mm 3 mps 699 mmHg 23%
14:00 +31°C° 0 mm 3 mps 698 mmHg 22%
15:00 +31°C° 0 mm 3 mps 697 mmHg 20%
16:00 +28°C° 0 mm 2 mps 697 mmHg 24%
17:00 +26°C° 0 mm 1 mps 697 mmHg 27%
18:00 +23°C° 0 mm 1 mps 696 mmHg 31%
19:00 +22°C° 0 mm 1 mps 697 mmHg 34%
20:00 +21°C° 0 mm 1 mps 697 mmHg 36%
21:00 +18°C° 0 mm 0 mps 697 mmHg 39%
22:00 +19°C° 0 mm 1 mps 697 mmHg 41%
23:00 +19°C° 0 mm 1 mps 697 mmHg 42%

28 July, Wednesday

Time Temperature Precipitation Wind Pressure Humidity
00:00 +18°C° 0 mm 1 mps 697 mmHg 44%
01:00 +18°C° 0 mm 1 mps 696 mmHg 46%
02:00 +16°C° 0 mm 1 mps 696 mmHg 48%
03:00 +16°C° 0 mm 1 mps 696 mmHg 50%
04:00 +16°C° 0 mm 1 mps 696 mmHg 53%
05:00 +15°C° 0 mm 1 mps 696 mmHg 56%
06:00 +15°C° 0 mm 1 mps 696 mmHg 59%
07:00 +19°C° 0 mm 1 mps 696 mmHg 51%
08:00 +22°C° 0 mm 1 mps 697 mmHg 43%
09:00 +26°C° 0 mm 1 mps 698 mmHg 35%
10:00 +28°C° 0 mm 2 mps 698 mmHg 30%
11:00 +30°C° 0 mm 3 mps 697 mmHg 24%
12:00 +33°C° 0 mm 4 mps 697 mmHg 19%
13:00 +34°C° 0 mm 4 mps 696 mmHg 18%
14:00 +34°C° 0 mm 4 mps 696 mmHg 17%
15:00 +35°C° 0 mm 5 mps 695 mmHg 16%
16:00 +32°C° 0 mm 4 mps 695 mmHg 20%
17:00 +29°C° 0 mm 2 mps 695 mmHg 24%
18:00 +26°C° 0 mm 1 mps 694 mmHg 27%
19:00 +25°C° 0 mm 1 mps 695 mmHg 29%
20:00 +24°C° 0 mm 1 mps 695 mmHg 32%
21:00 +23°C° 0 mm 1 mps 695 mmHg 34%
22:00 +22°C° 0 mm 1 mps 696 mmHg 36%
23:00 +21°C° 0 mm 1 mps 696 mmHg 37%
Show more